When you browse on this site, cookies collect data to enhance your experience and personalize the content and advertising you see.
Visit our Privacy Policy to learn more. By continuing to use the site, you agree to this use of cookies and data.
  • In Portugal
  • List of Countries
  • For 7 days
  • Water Temperature
  • Satellite Maps
  • Weather Map
  • Weather Widgets
  • user-avatar
    Login

    Hourly Weather Burhimahi

    Today, 27 June, Thursday

    Time Temperature Precipitation Wind Pressure Humidity
    00:00 +19°C° 0.3 mm 1 mps 663 mmHg 77%
    01:00 +19°C° 0.2 mm 1 mps 663 mmHg 77%
    02:00 +18°C° 0.2 mm 1 mps 663 mmHg 77%
    03:00 +17°C° 0.2 mm 2 mps 662 mmHg 77%
    04:00 +19°C° 0 mm 1 mps 663 mmHg 74%
    05:00 +20°C° 0 mm 1 mps 663 mmHg 72%
    06:00 +19°C° 0 mm 0 mps 663 mmHg 70%
    07:00 +22°C° 0.2 mm 1 mps 663 mmHg 68%
    08:00 +23°C° 0.2 mm 2 mps 663 mmHg 66%
    09:00 +24°C° 0.2 mm 2 mps 664 mmHg 63%
    10:00 +23°C° 1 mm 2 mps 663 mmHg 65%
    11:00 +22°C° 1 mm 3 mps 663 mmHg 67%
    12:00 +22°C° 1 mm 3 mps 663 mmHg 69%
    13:00 +22°C° 0.5 mm 3 mps 662 mmHg 67%
    14:00 +24°C° 0.5 mm 2 mps 662 mmHg 64%
    15:00 +24°C° 0.5 mm 2 mps 662 mmHg 61%
    16:00 +24°C° 0.2 mm 2 mps 662 mmHg 65%
    17:00 +23°C° 0.2 mm 2 mps 661 mmHg 68%
    18:00 +21°C° 0.2 mm 2 mps 661 mmHg 72%
    19:00 +21°C° 0 mm 1 mps 660 mmHg 74%
    20:00 +20°C° 0 mm 1 mps 660 mmHg 77%
    21:00 +18°C° 0 mm 1 mps 660 mmHg 79%
    22:00 +18°C° 0 mm 1 mps 659 mmHg 77%
    23:00 +17°C° 0 mm 2 mps 659 mmHg 75%

    Tomorrow, 28 June, Friday

    Time Temperature Precipitation Wind Pressure Humidity
    00:00 +17°C° 0 mm 2 mps 659 mmHg 73%
    01:00 +17°C° 0 mm 2 mps 659 mmHg 71%
    02:00 +17°C° 0 mm 2 mps 658 mmHg 70%
    03:00 +16°C° 0 mm 2 mps 658 mmHg 69%
    04:00 +17°C° 0 mm 2 mps 658 mmHg 68%
    05:00 +18°C° 0 mm 2 mps 658 mmHg 67%
    06:00 +20°C° 0 mm 1 mps 658 mmHg 66%
    07:00 +21°C° 0 mm 2 mps 658 mmHg 62%
    08:00 +23°C° 0 mm 2 mps 659 mmHg 57%
    09:00 +25°C° 0 mm 2 mps 659 mmHg 52%
    10:00 +26°C° 0.1 mm 3 mps 659 mmHg 52%
    11:00 +26°C° 0.1 mm 3 mps 658 mmHg 51%
    12:00 +27°C° 0.1 mm 3 mps 658 mmHg 50%
    13:00 +27°C° 0.3 mm 3 mps 658 mmHg 52%
    14:00 +26°C° 0.3 mm 3 mps 657 mmHg 53%
    15:00 +26°C° 0.3 mm 3 mps 657 mmHg 54%
    16:00 +25°C° 0.2 mm 2 mps 656 mmHg 57%
    17:00 +24°C° 0.2 mm 2 mps 656 mmHg 61%
    18:00 +24°C° 0.2 mm 1 mps 655 mmHg 65%
    19:00 +23°C° 0 mm 1 mps 655 mmHg 68%
    20:00 +21°C° 0 mm 1 mps 655 mmHg 70%
    21:00 +20°C° 0 mm 1 mps 655 mmHg 73%
    22:00 +20°C° 0.4 mm 1 mps 655 mmHg 74%
    23:00 +20°C° 0.4 mm 1 mps 655 mmHg 75%

    Day after tomorrow, 29 June, Saturday

    Time Temperature Precipitation Wind Pressure Humidity
    00:00 +19°C° 0.4 mm 2 mps 655 mmHg 75%
    01:00 +19°C° 0.5 mm 1 mps 655 mmHg 78%
    02:00 +19°C° 0.5 mm 1 mps 655 mmHg 81%
    03:00 +18°C° 0.5 mm 1 mps 655 mmHg 84%
    04:00 +18°C° 0.2 mm 1 mps 655 mmHg 84%
    05:00 +19°C° 0.2 mm 1 mps 655 mmHg 84%
    06:00 +19°C° 0.2 mm 1 mps 655 mmHg 84%
    07:00 +20°C° 0.1 mm 1 mps 656 mmHg 81%
    08:00 +20°C° 0.1 mm 2 mps 656 mmHg 78%
    09:00 +21°C° 0.1 mm 3 mps 656 mmHg 75%
    10:00 +21°C° 0.7 mm 3 mps 656 mmHg 76%
    11:00 +21°C° 0.7 mm 3 mps 656 mmHg 78%
    12:00 +21°C° 0.7 mm 3 mps 656 mmHg 79%
    13:00 +20°C° 1 mm 2 mps 656 mmHg 83%
    14:00 +19°C° 1 mm 2 mps 655 mmHg 87%
    15:00 +19°C° 1 mm 1 mps 655 mmHg 91%
    16:00 +18°C° 2 mm 2 mps 655 mmHg 93%
    17:00 +18°C° 2 mm 2 mps 655 mmHg 94%
    18:00 +17°C° 2 mm 2 mps 655 mmHg 95%
    19:00 +17°C° 0.7 mm 2 mps 655 mmHg 95%
    20:00 +17°C° 0.7 mm 2 mps 656 mmHg 95%
    21:00 +16°C° 0.7 mm 2 mps 656 mmHg 95%
    22:00 +16°C° 2.6 mm 2 mps 656 mmHg 95%
    23:00 +16°C° 2.6 mm 3 mps 656 mmHg 95%

    30 June, Sunday

    Time Temperature Precipitation Wind Pressure Humidity
    00:00 +14°C° 2.6 mm 4 mps 656 mmHg 96%
    01:00 +14°C° 2.2 mm 3 mps 656 mmHg 95%
    02:00 +13°C° 2.2 mm 3 mps 656 mmHg 94%
    03:00 +13°C° 2.2 mm 3 mps 656 mmHg 94%
    04:00 +13°C° 0.2 mm 3 mps 656 mmHg 93%
    05:00 +13°C° 0.2 mm 2 mps 656 mmHg 91%
    06:00 +13°C° 0.2 mm 2 mps 656 mmHg 90%
    07:00 +13°C° 0.7 mm 2 mps 657 mmHg 88%
    08:00 +13°C° 0.7 mm 1 mps 657 mmHg 86%
    09:00 +14°C° 0.7 mm 1 mps 657 mmHg 84%
    10:00 +15°C° 0 mm 1 mps 658 mmHg 78%
    11:00 +16°C° 0 mm 2 mps 658 mmHg 73%
    12:00 +17°C° 0 mm 2 mps 658 mmHg 67%
    13:00 +17°C° 0 mm 2 mps 658 mmHg 69%
    14:00 +16°C° 0 mm 2 mps 658 mmHg 72%
    15:00 +16°C° 0 mm 2 mps 657 mmHg 74%
    16:00 +16°C° 0.4 mm 2 mps 657 mmHg 77%
    17:00 +15°C° 0.4 mm 2 mps 657 mmHg 80%
    18:00 +14°C° 0.4 mm 1 mps 657 mmHg 83%
    19:00 +14°C° 2.4 mm 1 mps 657 mmHg 87%
    20:00 +13°C° 2.4 mm 1 mps 658 mmHg 90%
    21:00 +12°C° 2.4 mm 1 mps 658 mmHg 93%
    22:00 +12°C° 3.6 mm 2 mps 658 mmHg 94%
    23:00 +12°C° 3.6 mm 2 mps 658 mmHg 95%

    1 July, Monday

    Time Temperature Precipitation Wind Pressure Humidity
    00:00 +10°C° 3.6 mm 2 mps 658 mmHg 95%
    01:00 +10°C° 3.1 mm 3 mps 658 mmHg 95%
    02:00 +9°C° 3.1 mm 3 mps 658 mmHg 95%
    03:00 +9°C° 3.1 mm 3 mps 658 mmHg 95%
    04:00 +8°C° 2.6 mm 3 mps 658 mmHg 94%
    05:00 +8°C° 2.6 mm 3 mps 658 mmHg 93%
    06:00 +8°C° 2.6 mm 2 mps 658 mmHg 92%
    07:00 +8°C° 1.2 mm 2 mps 658 mmHg 91%
    08:00 +10°C° 1.2 mm 1 mps 658 mmHg 89%
    09:00 +10°C° 1.2 mm 1 mps 659 mmHg 88%
    10:00 +10°C° 0.5 mm 1 mps 659 mmHg 86%
    11:00 +11°C° 0.5 mm 1 mps 659 mmHg 85%
    12:00 +11°C° 0.5 mm 1 mps 659 mmHg 83%
    13:00 +11°C° 0.3 mm 1 mps 659 mmHg 81%
    14:00 +12°C° 0.3 mm 1 mps 659 mmHg 80%
    15:00 +12°C° 0.3 mm 1 mps 659 mmHg 78%
    16:00 +12°C° 0.2 mm 1 mps 659 mmHg 79%
    17:00 +12°C° 0.2 mm 1 mps 659 mmHg 80%
    18:00 +12°C° 0.2 mm 1 mps 659 mmHg 81%
    19:00 +12°C° 0.4 mm 1 mps 660 mmHg 83%
    20:00 +10°C° 0.4 mm 2 mps 660 mmHg 85%
    21:00 +10°C° 0.4 mm 2 mps 660 mmHg 86%
    22:00 +10°C° 0.5 mm 2 mps 660 mmHg 86%
    23:00 +9°C° 0.5 mm 3 mps 660 mmHg 86%

    2 July, Tuesday

    Time Temperature Precipitation Wind Pressure Humidity
    00:00 +9°C° 0.5 mm 3 mps 660 mmHg 86%
    01:00 +9°C° 0.3 mm 3 mps 660 mmHg 84%
    02:00 +8°C° 0.3 mm 3 mps 660 mmHg 83%
    03:00 +8°C° 0.3 mm 2 mps 660 mmHg 82%
    04:00 +9°C° 0 mm 2 mps 660 mmHg 79%
    05:00 +9°C° 0 mm 2 mps 661 mmHg 77%
    06:00 +10°C° 0 mm 2 mps 661 mmHg 74%
    07:00 +13°C° 0 mm 2 mps 662 mmHg 66%
    08:00 +15°C° 0 mm 2 mps 662 mmHg 58%
    09:00 +18°C° 0 mm 1 mps 663 mmHg 50%
    10:00 +18°C° 0 mm 2 mps 663 mmHg 49%
    11:00 +19°C° 0 mm 2 mps 663 mmHg 48%
    12:00 +19°C° 0 mm 2 mps 663 mmHg 47%
    13:00 +19°C° 0 mm 3 mps 663 mmHg 50%
    14:00 +19°C° 0 mm 3 mps 663 mmHg 53%
    15:00 +19°C° 0 mm 3 mps 663 mmHg 55%
    16:00 +19°C° 0 mm 3 mps 662 mmHg 59%
    17:00 +19°C° 0 mm 2 mps 662 mmHg 63%
    18:00 +18°C° 0 mm 2 mps 662 mmHg 67%
    19:00 +17°C° 0 mm 2 mps 662 mmHg 69%
    20:00 +15°C° 0 mm 2 mps 662 mmHg 71%
    21:00 +14°C° 0 mm 2 mps 661 mmHg 73%
    22:00 +14°C° 0 mm 2 mps 661 mmHg 71%
    23:00 +14°C° 0 mm 2 mps 661 mmHg 69%
    Show more